AUA907B LGSA-LOWG

Flight info

Callsign AUA907B
Flight time 1h 55m
Altitude 36000
Route SOKRI UB1 DDM UM619 YNN UL604 DIMIS DCT ADDER DCT PETAK DCT EMKES DCT ZAG DCT GOLVA GOLVA2M
Aircraft A321/M-SDE3FGHIRWY/LB1

Departure

Time 2026-04-24 13:51
Airport Chania International Airport (LGSA)

Arrival

Time 2026-04-24 15:46
Airport Graz Airport (LOWG)
Time Latitude Longitude Altitude Speed Heading
2026-04-24 13:39 35.53855 24.14101 455 ft 0 kts 19°
2026-04-24 13:46 35.53865 24.14097 454 ft 4 kts 333°
2026-04-24 13:47 35.53867 24.14071 454 ft 3 kts 251°
2026-04-24 13:47 35.53837 24.14037 452 ft 9 kts 221°
2026-04-24 13:47 35.53810 24.13996 453 ft 5 kts 260°
2026-04-24 13:47 35.53820 24.13940 452 ft 10 kts 289°
2026-04-24 13:48 35.53840 24.13872 451 ft 7 kts 287°
2026-04-24 13:48 35.53801 24.13818 450 ft 12 kts 207°
2026-04-24 13:48 35.53759 24.13778 449 ft 6 kts 249°
2026-04-24 13:48 35.53766 24.13713 448 ft 11 kts 289°
2026-04-24 13:49 35.53804 24.13596 447 ft 18 kts 292°
2026-04-24 13:49 35.53789 24.13500 439 ft 12 kts 218°
2026-04-24 13:49 35.53703 24.13450 441 ft 8 kts 203°
2026-04-24 13:49 35.53667 24.13462 436 ft 6 kts 126°
2026-04-24 13:50 35.53639 24.13545 441 ft 27 kts 112°
2026-04-24 13:50 35.53477 24.14038 451 ft 94 kts 112°
2026-04-24 13:50 35.53166 24.14995 468 ft 145 kts 112°
2026-04-24 13:50 35.52746 24.16282 680 ft 167 kts 112°
2026-04-24 13:51 35.52337 24.17576 1420 ft 164 kts 109°
2026-04-24 13:51 35.51898 24.18946 1799 ft 183 kts 109°
2026-04-24 13:51 35.51407 24.20489 2041 ft 203 kts 104°
2026-04-24 13:51 35.51469 24.22183 2376 ft 208 kts 67°
2026-04-24 13:52 35.52368 24.23676 2567 ft 227 kts 36°
2026-04-24 13:52 35.53875 24.24333 2998 ft 238 kts
2026-04-24 13:52 35.55527 24.23805 3437 ft 257 kts 334°
2026-04-24 13:52 35.57093 24.22746 4194 ft 263 kts 333°
2026-04-24 13:53 35.58696 24.21630 5047 ft 266 kts 332°
2026-04-24 13:53 35.60314 24.20497 5949 ft 268 kts 332°
2026-04-24 13:53 35.61938 24.19365 6825 ft 269 kts 331°
2026-04-24 13:53 35.63581 24.18223 7604 ft 273 kts 331°
2026-04-24 13:54 35.65249 24.17067 8382 ft 277 kts 331°
2026-04-24 13:54 35.66937 24.15899 9368 ft 280 kts 330°
2026-04-24 13:54 35.68649 24.14712 10287 ft 287 kts 330°
2026-04-24 13:54 35.70458 24.13457 10664 ft 310 kts 329°
2026-04-24 13:55 35.72415 24.12101 10980 ft 334 kts 330°
2026-04-24 13:55 35.74513 24.10648 11167 ft 358 kts 330°
2026-04-24 13:55 35.76758 24.09099 11359 ft 379 kts 330°
2026-04-24 13:55 35.79098 24.07485 11619 ft 389 kts 330°
2026-04-24 13:56 35.81481 24.05839 12045 ft 394 kts 329°
2026-04-24 13:56 35.83889 24.04176 12510 ft 399 kts 329°
2026-04-24 13:56 35.86323 24.02492 12956 ft 403 kts 329°
2026-04-24 13:56 35.88747 24.00809 13392 ft 407 kts 329°
2026-04-24 13:57 35.91229 23.99082 13811 ft 411 kts 329°
2026-04-24 13:57 35.93731 23.97339 14196 ft 414 kts 329°
2026-04-24 13:57 35.96245 23.95590 14599 ft 416 kts 329°
2026-04-24 13:57 35.98775 23.93832 14996 ft 418 kts 329°
2026-04-24 13:58 36.01316 23.92066 15388 ft 420 kts 329°
2026-04-24 13:58 36.03870 23.90289 15770 ft 423 kts 329°
2026-04-24 13:58 36.06447 23.88493 16144 ft 426 kts 329°
2026-04-24 13:58 36.09034 23.86688 16517 ft 429 kts 328°
2026-04-24 13:59 36.11651 23.84859 16892 ft 432 kts 328°
2026-04-24 13:59 36.14252 23.83037 17272 ft 435 kts 328°
2026-04-24 13:59 36.16895 23.81184 17647 ft 439 kts 328°
2026-04-24 13:59 36.19566 23.79312 18009 ft 443 kts 328°
2026-04-24 14:00 36.22260 23.77424 18368 ft 447 kts 328°
2026-04-24 14:00 36.24974 23.75525 18745 ft 449 kts 328°
2026-04-24 14:00 36.27703 23.73618 19158 ft 450 kts 328°
2026-04-24 14:00 36.30437 23.71701 19561 ft 451 kts 328°
2026-04-24 14:01 36.33178 23.69775 19950 ft 453 kts 328°
2026-04-24 14:01 36.35925 23.67840 20326 ft 454 kts 328°
2026-04-24 14:01 36.38677 23.65898 20694 ft 456 kts 327°
2026-04-24 14:01 36.41451 23.63940 21039 ft 458 kts 327°
2026-04-24 14:02 36.44196 23.62005 21383 ft 461 kts 327°
2026-04-24 14:02 36.46992 23.60037 21695 ft 464 kts 327°
2026-04-24 14:02 36.49811 23.58052 22038 ft 466 kts 327°
2026-04-24 14:02 36.52640 23.56057 22371 ft 469 kts 327°
2026-04-24 14:03 36.55488 23.54048 22708 ft 471 kts 327°
2026-04-24 14:03 36.58345 23.52029 23052 ft 474 kts 327°
2026-04-24 14:03 36.61214 23.49991 23384 ft 476 kts 327°
2026-04-24 14:03 36.64094 23.47940 23674 ft 478 kts 327°
2026-04-24 14:04 36.66991 23.45875 23937 ft 480 kts 327°
2026-04-24 14:04 36.69894 23.43811 24201 ft 481 kts 327°
2026-04-24 14:04 36.72811 23.41741 24460 ft 482 kts 327°
2026-04-24 14:04 36.75726 23.39670 24702 ft 483 kts 327°
2026-04-24 14:05 36.78667 23.37625 24926 ft 486 kts 330°
2026-04-24 14:05 36.81793 23.35984 25141 ft 490 kts 338°
2026-04-24 14:05 36.85119 23.34888 25332 ft 495 kts 347°
2026-04-24 14:05 36.88518 23.34182 25594 ft 495 kts 348°
2026-04-24 14:06 36.91912 23.33484 25899 ft 493 kts 347°
2026-04-24 14:06 36.95292 23.32779 26199 ft 491 kts 347°
2026-04-24 14:06 36.98663 23.32070 26500 ft 490 kts 347°
2026-04-24 14:06 37.02019 23.31361 26799 ft 488 kts 347°
2026-04-24 14:07 37.05364 23.30654 27114 ft 487 kts 347°
2026-04-24 14:07 37.08657 23.29962 27425 ft 485 kts 348°
2026-04-24 14:07 37.11977 23.29264 27760 ft 483 kts 348°
2026-04-24 14:07 37.15286 23.28572 28108 ft 480 kts 348°
2026-04-24 14:08 37.18569 23.27889 28460 ft 478 kts 348°
2026-04-24 14:08 37.21839 23.27207 28800 ft 475 kts 348°
2026-04-24 14:08 37.25097 23.26521 29141 ft 473 kts 349°
2026-04-24 14:08 37.28330 23.25837 29482 ft 470 kts 349°
2026-04-24 14:09 37.31554 23.25154 29813 ft 468 kts 349°
2026-04-24 14:09 37.34759 23.24475 30121 ft 467 kts 349°
2026-04-24 14:09 37.37945 23.23799 30374 ft 465 kts 349°
2026-04-24 14:09 37.41145 23.23121 30631 ft 464 kts 350°
2026-04-24 14:10 37.43243 23.22641 30807 ft 463 kts 347°
2026-04-24 14:10 37.47311 23.20942 31163 ft 460 kts 335°
2026-04-24 14:10 37.50127 23.19035 31420 ft 459 kts 327°
2026-04-24 14:10 37.52685 23.16623 31672 ft 459 kts 321°
2026-04-24 14:11 37.55142 23.14054 31900 ft 458 kts 321°
2026-04-24 14:11 37.57594 23.11496 32141 ft 458 kts 321°
2026-04-24 14:11 37.62502 23.06384 32619 ft 457 kts 322°
2026-04-24 14:12 37.64952 23.03834 32867 ft 456 kts 322°
2026-04-24 14:12 37.67399 23.01285 33112 ft 456 kts 322°
2026-04-24 14:12 37.69843 22.98733 33353 ft 455 kts 322°
2026-04-24 14:12 37.72277 22.96186 33583 ft 455 kts 322°
2026-04-24 14:13 37.74717 22.93633 33811 ft 454 kts 322°
2026-04-24 14:13 37.77116 22.91121 34041 ft 454 kts 322°
2026-04-24 14:13 37.79544 22.88575 34223 ft 453 kts 322°
2026-04-24 14:13 37.81970 22.86025 34408 ft 453 kts 322°
2026-04-24 14:14 37.84397 22.83470 34592 ft 453 kts 322°
2026-04-24 14:14 37.86816 22.80922 34783 ft 452 kts 322°
2026-04-24 14:14 37.91650 22.75838 35155 ft 452 kts 322°
2026-04-24 14:15 37.94065 22.73297 35335 ft 451 kts 322°
2026-04-24 14:15 37.96482 22.70751 35519 ft 451 kts 322°
2026-04-24 14:15 37.98893 22.68206 35696 ft 450 kts 322°
2026-04-24 14:15 38.01294 22.65666 35888 ft 450 kts 322°
2026-04-24 14:16 38.06105 22.60568 36001 ft 450 kts 322°
2026-04-24 14:17 38.13311 22.52930 36003 ft 449 kts 322°
2026-04-24 14:17 38.20500 22.45290 36002 ft 449 kts 322°
2026-04-24 14:18 38.25283 22.40190 36002 ft 449 kts 322°
2026-04-24 14:18 38.30076 22.35074 36000 ft 449 kts 322°
2026-04-24 14:19 38.34838 22.29977 36002 ft 450 kts 322°
2026-04-24 14:19 38.39624 22.24834 36009 ft 450 kts 322°
2026-04-24 14:20 38.44414 22.19686 36007 ft 450 kts 322°
2026-04-24 14:20 38.49204 22.14540 36005 ft 450 kts 322°
2026-04-24 14:21 38.53185 22.10262 36012 ft 450 kts 322°
2026-04-24 14:21 38.58752 22.04262 36013 ft 450 kts 322°
2026-04-24 14:22 38.62755 21.99936 36011 ft 449 kts 322°
2026-04-24 14:23 38.69912 21.92182 36010 ft 449 kts 322°
2026-04-24 14:23 38.74684 21.87029 36010 ft 448 kts 322°
2026-04-24 14:24 38.79419 21.81910 36006 ft 447 kts 322°
2026-04-24 14:24 38.84175 21.76769 36008 ft 447 kts 322°
2026-04-24 14:25 38.88922 21.71615 36006 ft 447 kts 322°
2026-04-24 14:25 38.93667 21.66465 35996 ft 446 kts 322°
2026-04-24 14:26 38.98402 21.61313 35997 ft 446 kts 322°
2026-04-24 14:26 39.03132 21.56147 35997 ft 446 kts 322°
2026-04-24 14:27 39.07859 21.50972 35996 ft 446 kts 322°
2026-04-24 14:27 39.12583 21.45796 35993 ft 446 kts 322°
2026-04-24 14:28 39.17298 21.40620 35993 ft 445 kts 322°
2026-04-24 14:28 39.22015 21.35436 35992 ft 445 kts 322°
2026-04-24 14:29 39.26735 21.30241 35993 ft 445 kts 322°
2026-04-24 14:29 39.31412 21.25081 35987 ft 445 kts 322°
2026-04-24 14:30 39.36113 21.19873 35984 ft 445 kts 322°
2026-04-24 14:30 39.40819 21.14665 35987 ft 445 kts 322°
2026-04-24 14:31 39.45522 21.09458 35983 ft 445 kts 322°
2026-04-24 14:31 39.50221 21.04231 35981 ft 445 kts 322°
2026-04-24 14:32 39.54918 20.99001 35977 ft 445 kts 322°
2026-04-24 14:32 39.59613 20.93762 35975 ft 445 kts 322°
2026-04-24 14:33 39.64302 20.88512 35972 ft 445 kts 322°
2026-04-24 14:33 39.69025 20.83302 35969 ft 444 kts 327°
2026-04-24 14:34 39.74392 20.79498 35969 ft 439 kts 338°
2026-04-24 14:34 39.79932 20.76151 35965 ft 439 kts 338°
2026-04-24 14:35 39.85468 20.72766 35962 ft 440 kts 338°
2026-04-24 14:35 39.91010 20.69374 35959 ft 440 kts 338°
2026-04-24 14:36 39.96564 20.65994 35952 ft 440 kts 338°
2026-04-24 14:36 40.02121 20.62610 35954 ft 441 kts 338°
2026-04-24 14:37 40.07641 20.59232 35952 ft 441 kts 338°
2026-04-24 14:37 40.13171 20.55748 35955 ft 441 kts 337°
2026-04-24 14:38 40.18677 20.52193 35958 ft 441 kts 337°
2026-04-24 14:38 40.24190 20.48635 35957 ft 442 kts 337°
2026-04-24 14:39 40.29708 20.45088 35959 ft 442 kts 337°
2026-04-24 14:39 40.35227 20.41543 35965 ft 442 kts 337°
2026-04-24 14:40 40.40746 20.37989 35969 ft 442 kts 338°
2026-04-24 14:40 40.46261 20.34438 35973 ft 442 kts 338°
2026-04-24 14:41 40.51784 20.30866 35980 ft 442 kts 337°
2026-04-24 14:41 40.57204 20.27005 35984 ft 444 kts 333°
2026-04-24 14:42 40.62495 20.22788 35988 ft 445 kts 332°
2026-04-24 14:42 40.67774 20.18534 35979 ft 445 kts 333°
2026-04-24 14:43 40.73093 20.14363 35994 ft 445 kts 334°
2026-04-24 14:43 40.78427 20.10232 35992 ft 444 kts 334°
2026-04-24 14:44 40.83753 20.06088 35993 ft 444 kts 334°
2026-04-24 14:44 40.89074 20.01914 35994 ft 445 kts 333°
2026-04-24 14:45 40.94353 19.97744 35993 ft 445 kts 333°
2026-04-24 14:45 40.99677 19.93547 35997 ft 445 kts 333°
2026-04-24 14:46 41.04999 19.89356 35999 ft 445 kts 333°
2026-04-24 14:46 41.10329 19.85154 36000 ft 445 kts 334°
2026-04-24 14:47 41.15658 19.80940 36006 ft 446 kts 333°
2026-04-24 14:47 41.20985 19.76713 36007 ft 446 kts 333°
2026-04-24 14:48 41.26319 19.72479 36011 ft 446 kts 334°
2026-04-24 14:48 41.31654 19.68244 36010 ft 447 kts 334°
2026-04-24 14:49 41.36996 19.63990 36013 ft 447 kts 334°
2026-04-24 14:49 41.42338 19.59725 36016 ft 447 kts 334°
2026-04-24 14:50 41.47680 19.55451 36017 ft 448 kts 334°
2026-04-24 14:50 41.53010 19.51163 36021 ft 448 kts 334°
2026-04-24 14:51 41.58351 19.46873 36024 ft 448 kts 334°
2026-04-24 14:51 41.63690 19.42581 36021 ft 448 kts 334°
2026-04-24 14:52 41.69030 19.38280 36023 ft 448 kts 334°
2026-04-24 14:52 41.74364 19.33956 36024 ft 448 kts 333°
2026-04-24 14:53 41.79684 19.29723 36024 ft 447 kts 336°
2026-04-24 14:53 41.85191 19.25885 36024 ft 445 kts 338°
2026-04-24 14:54 41.90752 19.22229 36024 ft 445 kts 338°
2026-04-24 14:54 41.96280 19.18475 36023 ft 446 kts 338°
2026-04-24 14:55 42.00861 19.15283 36021 ft 446 kts 337°
2026-04-24 14:55 42.07295 19.10763 36015 ft 446 kts 337°
2026-04-24 14:56 42.12818 19.06911 36004 ft 446 kts 337°
2026-04-24 14:56 42.18332 19.03072 35997 ft 447 kts 337°
2026-04-24 14:57 42.23822 18.99227 36003 ft 447 kts 337°
2026-04-24 14:57 42.29345 18.95340 36033 ft 447 kts 337°
2026-04-24 14:58 42.34860 18.91460 36032 ft 447 kts 337°
2026-04-24 14:58 42.40380 18.87576 36033 ft 447 kts 337°
2026-04-24 14:59 42.45895 18.83682 36036 ft 447 kts 337°
2026-04-24 14:59 42.51406 18.79788 36034 ft 446 kts 337°
2026-04-24 15:00 42.56913 18.75888 36036 ft 446 kts 337°
2026-04-24 15:00 42.62407 18.71981 36021 ft 446 kts 337°
2026-04-24 15:01 42.67902 18.68064 36008 ft 445 kts 337°
2026-04-24 15:01 42.73363 18.64180 36000 ft 446 kts 337°
2026-04-24 15:02 42.78856 18.60265 36004 ft 445 kts 336°
2026-04-24 15:02 42.84341 18.56336 36021 ft 445 kts 336°
2026-04-24 15:03 42.88940 18.53039 36017 ft 445 kts 336°
2026-04-24 15:03 42.95319 18.48460 36008 ft 446 kts 336°
2026-04-24 15:04 43.00802 18.44514 36012 ft 445 kts 336°
2026-04-24 15:04 43.06283 18.40562 36013 ft 446 kts 336°
2026-04-24 15:05 43.10846 18.37263 36016 ft 446 kts 336°
2026-04-24 15:05 43.16331 18.33285 36024 ft 446 kts 336°
2026-04-24 15:06 43.21820 18.29299 36023 ft 446 kts 336°
2026-04-24 15:06 43.27302 18.25309 36020 ft 446 kts 336°
2026-04-24 15:07 43.32782 18.21317 36017 ft 446 kts 336°
2026-04-24 15:07 43.38261 18.17329 36015 ft 446 kts 336°
2026-04-24 15:08 43.43732 18.13325 36016 ft 445 kts 336°
2026-04-24 15:08 43.49196 18.09319 36027 ft 445 kts 336°
2026-04-24 15:09 43.54650 18.05316 36034 ft 445 kts 336°
2026-04-24 15:09 43.60125 18.01280 36055 ft 445 kts 336°
2026-04-24 15:10 43.65583 17.97254 36055 ft 444 kts 336°
2026-04-24 15:10 43.70995 17.93254 36061 ft 444 kts 336°
2026-04-24 15:11 43.76480 17.89212 36058 ft 444 kts 336°
2026-04-24 15:11 43.81885 17.85207 36053 ft 443 kts 336°
2026-04-24 15:12 43.87379 17.81214 36057 ft 442 kts 336°
2026-04-24 15:12 43.95555 17.75386 36064 ft 443 kts 336°
2026-04-24 15:13 44.01027 17.71464 36066 ft 442 kts 336°
2026-04-24 15:13 44.06484 17.67531 36071 ft 442 kts 336°
2026-04-24 15:14 44.11941 17.63592 36068 ft 441 kts 336°
2026-04-24 15:14 44.17388 17.59654 36071 ft 441 kts 336°
2026-04-24 15:15 44.22839 17.55704 36074 ft 441 kts 336°
2026-04-24 15:15 44.28280 17.51756 36071 ft 440 kts 336°
2026-04-24 15:16 44.33709 17.47801 36073 ft 440 kts 336°
2026-04-24 15:16 44.39145 17.43832 36071 ft 440 kts 336°
2026-04-24 15:17 44.44540 17.39893 36067 ft 440 kts 336°
2026-04-24 15:17 44.49976 17.35913 36068 ft 440 kts 336°
2026-04-24 15:18 44.55408 17.31925 36074 ft 441 kts 336°
2026-04-24 15:18 44.60844 17.27919 36069 ft 441 kts 336°
2026-04-24 15:19 44.66276 17.23914 36067 ft 441 kts 336°
2026-04-24 15:19 44.71708 17.19913 36062 ft 441 kts 336°
2026-04-24 15:20 44.77119 17.15906 36064 ft 442 kts 336°
2026-04-24 15:20 44.82555 17.11875 36073 ft 442 kts 336°
2026-04-24 15:21 44.87991 17.07851 36074 ft 441 kts 336°
2026-04-24 15:21 44.93424 17.03810 36064 ft 441 kts 336°
2026-04-24 15:22 44.98855 16.99753 36063 ft 441 kts 336°
2026-04-24 15:23 45.06991 16.93658 36060 ft 440 kts 336°
2026-04-24 15:23 45.12404 16.89566 35433 ft 440 kts 336°
2026-04-24 15:23 45.15068 16.87553 35059 ft 441 kts 336°
2026-04-24 15:24 45.23241 16.81397 33959 ft 444 kts 336°
2026-04-24 15:25 45.27825 16.77939 33268 ft 446 kts 335°
2026-04-24 15:25 45.34202 16.73110 32348 ft 447 kts 335°
2026-04-24 15:26 45.42464 16.66831 31199 ft 449 kts 335°
2026-04-24 15:27 45.50759 16.60519 30081 ft 452 kts 334°
2026-04-24 15:27 45.59099 16.54137 28726 ft 455 kts 334°
2026-04-24 15:28 45.70306 16.45533 26806 ft 459 kts 334°
2026-04-24 15:29 45.75957 16.41188 25807 ft 462 kts 333°
2026-04-24 15:30 45.84453 16.34633 24279 ft 467 kts 333°
2026-04-24 15:31 45.95768 16.25793 21727 ft 455 kts 332°
2026-04-24 15:32 46.06592 16.17143 19256 ft 430 kts 332°
2026-04-24 15:33 46.16641 16.09118 16751 ft 395 kts 332°
2026-04-24 15:33 46.23619 16.03530 14903 ft 375 kts 332°
2026-04-24 15:34 46.28126 15.99912 13712 ft 367 kts 332°
2026-04-24 15:35 46.34707 15.94613 11782 ft 355 kts 332°
2026-04-24 15:35 46.38850 15.91270 11329 ft 326 kts 332°
2026-04-24 15:35 46.40789 15.89702 11136 ft 312 kts 331°
2026-04-24 15:36 46.42643 15.88203 10966 ft 298 kts 331°
2026-04-24 15:36 46.46104 15.85401 10678 ft 273 kts 331°
2026-04-24 15:36 46.47743 15.84072 10363 ft 268 kts 331°
2026-04-24 15:37 46.49359 15.82762 10004 ft 264 kts 331°
2026-04-24 15:37 46.50956 15.81468 9603 ft 262 kts 331°
2026-04-24 15:37 46.52008 15.80614 9315 ft 261 kts 331°
2026-04-24 15:37 46.54124 15.78899 8708 ft 260 kts 330°
2026-04-24 15:38 46.55699 15.77619 8250 ft 260 kts 330°
2026-04-24 15:38 46.57275 15.76333 7811 ft 259 kts 330°
2026-04-24 15:38 46.58849 15.75052 7391 ft 259 kts 330°
2026-04-24 15:38 46.60420 15.73771 6972 ft 260 kts 330°
2026-04-24 15:39 46.61994 15.72488 6657 ft 255 kts 330°
2026-04-24 15:39 46.63511 15.71250 6484 ft 246 kts 330°
2026-04-24 15:39 46.64996 15.70034 6284 ft 245 kts 330°
2026-04-24 15:39 46.66494 15.68809 6102 ft 246 kts 330°
2026-04-24 15:40 46.67987 15.67590 5995 ft 247 kts 331°
2026-04-24 15:40 46.69496 15.66358 6000 ft 248 kts 330°
2026-04-24 15:40 46.70924 15.64938 5998 ft 249 kts 323°
2026-04-24 15:40 46.72291 15.63381 5999 ft 250 kts 322°
2026-04-24 15:41 46.73647 15.61802 5996 ft 250 kts 322°
2026-04-24 15:41 46.74979 15.60241 5820 ft 243 kts 322°
2026-04-24 15:41 46.76275 15.58723 5509 ft 236 kts 322°
2026-04-24 15:41 46.77545 15.57231 5194 ft 233 kts 322°
2026-04-24 15:42 46.78810 15.55750 4886 ft 233 kts 322°
2026-04-24 15:42 46.80064 15.54283 4581 ft 229 kts 322°
2026-04-24 15:42 46.81280 15.52863 4294 ft 224 kts 322°
2026-04-24 15:42 46.82474 15.51469 4112 ft 215 kts 322°
2026-04-24 15:43 46.83636 15.50183 3965 ft 203 kts 327°
2026-04-24 15:43 46.84802 15.49151 3798 ft 192 kts 334°
2026-04-24 15:43 46.85997 15.48307 3491 ft 190 kts 336°
2026-04-24 15:43 46.87221 15.47561 3229 ft 188 kts 340°
2026-04-24 15:44 46.88449 15.47031 3025 ft 181 kts 347°
2026-04-24 15:44 46.89665 15.46630 2805 ft 176 kts 347°
2026-04-24 15:44 46.90803 15.46209 2641 ft 159 kts 347°
2026-04-24 15:44 46.91850 15.45911 2382 ft 149 kts 352°
2026-04-24 15:45 46.92852 15.45656 2118 ft 144 kts 351°
2026-04-24 15:45 46.93824 15.45396 1911 ft 142 kts 350°
2026-04-24 15:45 46.94821 15.45129 1769 ft 149 kts 352°
2026-04-24 15:45 46.95840 15.44850 1584 ft 150 kts 351°
2026-04-24 15:46 46.96870 15.44572 1388 ft 148 kts 352°
2026-04-24 15:46 46.97883 15.44298 1166 ft 147 kts 351°
2026-04-24 15:46 46.98850 15.44035 1105 ft 124 kts 348°
2026-04-24 15:46 46.99402 15.43885 1116 ft 42 kts 349°
2026-04-24 15:47 46.99559 15.43843 1117 ft 27 kts 353°
2026-04-24 15:47 46.99778 15.43885 1118 ft 23 kts 15°
2026-04-24 15:47 46.99862 15.43916 1120 ft 14 kts 17°
2026-04-24 15:47 46.99926 15.44010 1118 ft 13 kts 72°
2026-04-24 15:48 46.99914 15.44134 1117 ft 13 kts 139°
2026-04-24 15:48 46.99824 15.44179 1111 ft 13 kts 143°
2026-04-24 15:48 46.99815 15.44261 1120 ft 8 kts 82°
2026-04-24 15:48 46.99842 15.44302 1118 ft 5 kts
2026-04-24 15:49 46.99874 15.44298 1112 ft 2 kts 351°
2026-04-24 15:49 46.99878 15.44297 1111 ft 0 kts 350°